Weather History for Missoula, MT

Change the Weather History Date:

Friday, May 9, 2014

  Actual Average Record
Temperature  
Mean Temperature 52 °F 52 °F  
Max Temperature 60 °F 66 °F 85 °F (1994)
Min Temperature 43 °F 38 °F 23 °F (2002)
Degree Days  
Heating Degree Days 13 13  
Month to date heating degree days 118 131  
Since 1 July heating degree days 7110 6894  
Cooling Degree Days 0 0  
Month to date cooling degree days 0 0  
Year to date cooling degree days 0 0  
Growing Degree Days 2 (Base 50)    
Moisture  
Dew Point 35 °F    
Average Humidity 58    
Maximum Humidity 83    
Minimum Humidity 33    
Precipitation  
Precipitation 0.03 in 0.05 in 0.78 in (1905)
Month to date precipitation 0.45 0.42  
Year to date precipitation 6.29 4.19  
Snow  
Snow 0.00 in - - ()
Month to date snowfall 0.0  
Year to date snowfall 51.8  
Since 1 July snowfall 65.7  
Snow Depth 0.00 in    
Sea Level Pressure  
Sea Level Pressure 29.78 in    
Wind  
Wind Speed 7 mph (WNW)    
Max Wind Speed 26 mph    
Max Gust Speed 33 mph    
Visibility 10 miles    
Events Rain    
T = Trace of Precipitation, MM = Missing Value Source: NWS Daily Summary

Daily Weather History Graph

Daily Weather History Graph

Search for Another Location

Airport:

Trip Planner

Search our weather history database for the weather conditions in past years. The results will help you decide how hot, cold, wet, or windy it might be!

Date:

Astronomy

May. 09, 2014 Rise Set
Actual Time 6:08 AM MDT 8:57 PM MDT
Civil Twilight 5:33 AM MDT 9:32 PM MDT
Nautical Twilight 4:49 AM MDT 10:17 PM MDT
Astronomical Twilight 3:56 AM MDT 11:10 PM MDT
Moon 3:39 PM MDT (5/9) 3:34 AM MDT (5/9)
Length of Visible Light 15h 58m
Length of Day
14h 48m
Waxing Gibbous, 74% of the Moon is Illuminated
May 9
Waxing Gibbous
May 14
Full
May 21
Last Quarter
May 28
New
Jun 5
First Quarter

Hourly Weather History & Observations

Time (MDT) Temp. Windchill Dew Point Humidity Pressure Visibility Wind Dir Wind Speed Gust Speed Precip Events Conditions
12:53 AM 44.1 °F 42.5 °F 32.0 °F 63% 29.69 in 10.0 mi West 3.5 mph - N/A   Mostly Cloudy
1:53 AM 45.0 °F - 32.0 °F 60% 29.68 in 10.0 mi Calm Calm - N/A   Scattered Clouds
2:53 AM 46.4 °F - 33.8 °F 62% 29.67 in 10.0 mi Calm Calm - N/A   Overcast
3:53 AM 44.1 °F 41.5 °F 35.1 °F 71% 29.66 in 10.0 mi West 4.6 mph - N/A   Overcast
4:53 AM 46.0 °F 44.8 °F 34.0 °F 63% 29.66 in 10.0 mi NNW 3.5 mph - N/A   Overcast
5:42 AM 43.0 °F 39.5 °F 37.9 °F 82% 29.69 in 7.0 mi NW 5.8 mph - 0.00 in Rain Light Rain
6:53 AM 43.0 °F 40.3 °F 39.0 °F 86% 29.70 in 10.0 mi South 4.6 mph - 0.00 in   Overcast
7:53 AM 45.0 °F - 39.0 °F 80% 29.71 in 10.0 mi Calm Calm - 0.00 in   Overcast
8:53 AM 46.0 °F - 39.9 °F 79% 29.73 in 10.0 mi Calm Calm - N/A   Overcast
9:53 AM 48.9 °F - 43.0 °F 80% 29.75 in 10.0 mi ESE 4.6 mph - 0.00 in   Overcast
10:53 AM 50.0 °F - 39.0 °F 66% 29.76 in 10.0 mi WNW 3.5 mph - 0.00 in Rain Light Rain
11:31 AM 50.0 °F - 42.1 °F 74% 29.77 in 10.0 mi North 6.9 mph - 0.00 in Rain Light Rain
11:53 AM 52.0 °F - 39.9 °F 63% 29.78 in 10.0 mi NW 4.6 mph - 0.00 in   Mostly Cloudy
12:53 PM 57.0 °F - 36.0 °F 45% 29.78 in 10.0 mi WNW 13.8 mph 20.7 mph 0.00 in   Overcast
1:53 PM 57.9 °F - 34.0 °F 41% 29.78 in 10.0 mi West 13.8 mph 23.0 mph N/A   Scattered Clouds
2:53 PM 59.0 °F - 30.9 °F 35% 29.77 in 10.0 mi WSW 12.7 mph 21.9 mph N/A   Scattered Clouds
3:46 PM 57.9 °F - 33.1 °F 39% 29.79 in 10.0 mi West 18.4 mph 31.1 mph N/A   Mostly Cloudy
3:53 PM 59.0 °F - 30.9 °F 35% 29.78 in 10.0 mi WNW 11.5 mph 31.1 mph N/A   Mostly Cloudy
4:53 PM 59.0 °F - 33.1 °F 38% 29.79 in 10.0 mi West 20.7 mph 26.5 mph N/A   Overcast
5:53 PM 55.9 °F - 30.9 °F 39% 29.83 in 10.0 mi West 18.4 mph 25.3 mph N/A   Overcast
6:53 PM 54.0 °F - 28.9 °F 38% 29.84 in 10.0 mi West 11.5 mph - N/A   Overcast
7:53 PM 53.1 °F - 30.0 °F 41% 29.85 in 10.0 mi WSW 10.4 mph - N/A   Mostly Cloudy
8:53 PM 48.9 °F - 32.0 °F 52% 29.88 in 10.0 mi NW 9.2 mph - N/A   Mostly Cloudy
9:53 PM 48.0 °F - 34.0 °F 58% 29.91 in 10.0 mi West 9.2 mph - 0.00 in Rain Light Rain
10:53 PM 46.0 °F 43.9 °F 34.0 °F 63% 29.92 in 10.0 mi NW 4.6 mph - 0.00 in   Mostly Cloudy
11:53 PM 44.1 °F 39.0 °F 37.0 °F 76% 29.92 in 10.0 mi NNW 9.2 mph - 0.00 in Rain Light Rain